• In Uzbekistan
  • List of Countries
  • For 7 days
  • Water Temperature
  • Satellite Maps
  • Weather Map
  • Weather Widgets
  • user-avatar
    Login

    Hourly Weather Lubango

    Today, 23 November, Thursday

    Time Temperature Precipitation Wind Pressure Humidity
    00:00 +15°C° 0 mm 0 mps 608 mmHg 52%
    01:00 +15°C° 0 mm 0 mps 608 mmHg 53%
    02:00 +15°C° 0 mm 0 mps 607 mmHg 53%
    03:00 +15°C° 0 mm 0 mps 607 mmHg 53%
    04:00 +15°C° 0 mm 0 mps 607 mmHg 53%
    05:00 +16°C° 0 mm 0 mps 608 mmHg 48%
    06:00 +18°C° 0 mm 0 mps 609 mmHg 44%
    07:00 +19°C° 0 mm 0 mps 610 mmHg 39%
    08:00 +24°C° 0 mm 1 mps 611 mmHg 33%
    09:00 +27°C° 0 mm 1 mps 611 mmHg 27%
    10:00 +29°C° 0 mm 2 mps 612 mmHg 21%
    11:00 +30°C° 0 mm 2 mps 612 mmHg 21%
    12:00 +30°C° 0 mm 2 mps 612 mmHg 20%
    13:00 +31°C° 0 mm 2 mps 611 mmHg 20%
    14:00 +30°C° 0 mm 2 mps 611 mmHg 22%
    15:00 +29°C° 0 mm 2 mps 610 mmHg 24%
    16:00 +27°C° 0 mm 3 mps 609 mmHg 27%
    17:00 +25°C° 0 mm 2 mps 609 mmHg 32%
    18:00 +23°C° 0 mm 2 mps 608 mmHg 37%
    19:00 +20°C° 0 mm 2 mps 608 mmHg 42%
    20:00 +20°C° 0 mm 1 mps 608 mmHg 46%
    21:00 +19°C° 0 mm 1 mps 608 mmHg 49%
    22:00 +18°C° 0 mm 1 mps 609 mmHg 53%
    23:00 +18°C° 0 mm 1 mps 608 mmHg 54%

    Tomorrow, 24 November, Friday

    Time Temperature Precipitation Wind Pressure Humidity
    00:00 +18°C° 0 mm 1 mps 608 mmHg 54%
    01:00 +18°C° 0 mm 1 mps 608 mmHg 55%
    02:00 +16°C° 0 mm 1 mps 608 mmHg 56%
    03:00 +16°C° 0 mm 1 mps 608 mmHg 58%
    04:00 +14°C° 0 mm 0 mps 608 mmHg 60%
    05:00 +15°C° 0 mm 0 mps 608 mmHg 57%
    06:00 +16°C° 0 mm 0 mps 609 mmHg 54%
    07:00 +17°C° 0 mm 0 mps 610 mmHg 52%
    08:00 +22°C° 0 mm 1 mps 611 mmHg 44%
    09:00 +24°C° 0 mm 1 mps 612 mmHg 37%
    10:00 +27°C° 0 mm 2 mps 613 mmHg 29%
    11:00 +28°C° 0 mm 2 mps 612 mmHg 28%
    12:00 +29°C° 0 mm 2 mps 612 mmHg 26%
    13:00 +30°C° 0 mm 2 mps 612 mmHg 25%
    14:00 +29°C° 0.1 mm 2 mps 611 mmHg 29%
    15:00 +27°C° 0.1 mm 2 mps 610 mmHg 33%
    16:00 +25°C° 0.1 mm 3 mps 609 mmHg 37%
    17:00 +24°C° 0 mm 3 mps 609 mmHg 43%
    18:00 +21°C° 0 mm 2 mps 609 mmHg 49%
    19:00 +19°C° 0 mm 2 mps 609 mmHg 56%
    20:00 +19°C° 0.1 mm 2 mps 609 mmHg 60%
    21:00 +19°C° 0.1 mm 1 mps 609 mmHg 64%
    22:00 +18°C° 0.1 mm 1 mps 610 mmHg 69%
    23:00 +18°C° 0.1 mm 1 mps 609 mmHg 71%

    Day after tomorrow, 25 November, Saturday

    Time Temperature Precipitation Wind Pressure Humidity
    00:00 +16°C° 0.1 mm 1 mps 609 mmHg 73%
    01:00 +16°C° 0.1 mm 1 mps 608 mmHg 75%
    02:00 +16°C° 0 mm 1 mps 608 mmHg 76%
    03:00 +14°C° 0 mm 0 mps 608 mmHg 77%
    04:00 +14°C° 0 mm 0 mps 608 mmHg 78%
    05:00 +15°C° 0 mm 0 mps 608 mmHg 73%
    06:00 +16°C° 0 mm 0 mps 609 mmHg 69%
    07:00 +17°C° 0 mm 0 mps 610 mmHg 64%
    08:00 +21°C° 0 mm 1 mps 611 mmHg 53%
    09:00 +24°C° 0 mm 1 mps 612 mmHg 42%
    10:00 +26°C° 0 mm 2 mps 612 mmHg 32%
    11:00 +28°C° 0 mm 2 mps 612 mmHg 29%
    12:00 +29°C° 0 mm 3 mps 612 mmHg 27%
    13:00 +30°C° 0 mm 3 mps 611 mmHg 25%
    14:00 +28°C° 0 mm 4 mps 611 mmHg 29%
    15:00 +27°C° 0 mm 4 mps 610 mmHg 32%
    16:00 +26°C° 0 mm 5 mps 609 mmHg 36%
    17:00 +23°C° 0 mm 4 mps 609 mmHg 44%
    18:00 +21°C° 0 mm 4 mps 609 mmHg 53%
    19:00 +19°C° 0 mm 3 mps 609 mmHg 61%
    20:00 +18°C° 0 mm 3 mps 609 mmHg 67%
    21:00 +16°C° 0 mm 2 mps 609 mmHg 72%
    22:00 +15°C° 0 mm 2 mps 609 mmHg 77%
    23:00 +15°C° 0 mm 1 mps 609 mmHg 80%

    26 November, Sunday

    Time Temperature Precipitation Wind Pressure Humidity
    00:00 +14°C° 0 mm 1 mps 608 mmHg 83%
    01:00 +14°C° 0 mm 1 mps 608 mmHg 85%
    02:00 +14°C° 0 mm 1 mps 608 mmHg 86%
    03:00 +13°C° 0 mm 1 mps 607 mmHg 87%
    04:00 +13°C° 0 mm 1 mps 607 mmHg 87%
    05:00 +14°C° 0 mm 1 mps 608 mmHg 80%
    06:00 +15°C° 0 mm 1 mps 609 mmHg 73%
    07:00 +18°C° 0 mm 1 mps 610 mmHg 66%
    08:00 +20°C° 0 mm 1 mps 611 mmHg 56%
    09:00 +23°C° 0 mm 2 mps 612 mmHg 45%
    10:00 +26°C° 0 mm 2 mps 612 mmHg 34%
    11:00 +27°C° 0 mm 2 mps 612 mmHg 32%
    12:00 +28°C° 0 mm 3 mps 612 mmHg 29%
    13:00 +29°C° 0 mm 3 mps 612 mmHg 26%
    14:00 +28°C° 0 mm 4 mps 611 mmHg 32%
    15:00 +26°C° 0 mm 4 mps 610 mmHg 37%
    16:00 +25°C° 0 mm 5 mps 610 mmHg 42%
    17:00 +22°C° 0.1 mm 4 mps 610 mmHg 52%
    18:00 +20°C° 0.1 mm 4 mps 610 mmHg 61%
    19:00 +17°C° 0.1 mm 3 mps 609 mmHg 71%
    20:00 +17°C° 0 mm 3 mps 610 mmHg 74%
    21:00 +16°C° 0 mm 3 mps 610 mmHg 78%
    22:00 +14°C° 0 mm 3 mps 610 mmHg 81%
    23:00 +14°C° 0 mm 2 mps 610 mmHg 82%

    27 November, Monday

    Time Temperature Precipitation Wind Pressure Humidity
    00:00 +14°C° 0 mm 2 mps 609 mmHg 84%
    01:00 +13°C° 0 mm 2 mps 609 mmHg 85%
    02:00 +13°C° 0 mm 2 mps 608 mmHg 85%
    03:00 +13°C° 0 mm 2 mps 608 mmHg 85%
    04:00 +12°C° 0 mm 1 mps 608 mmHg 85%
    05:00 +13°C° 0 mm 1 mps 609 mmHg 79%
    06:00 +14°C° 0 mm 1 mps 609 mmHg 73%
    07:00 +15°C° 0 mm 1 mps 610 mmHg 67%
    08:00 +18°C° 0 mm 2 mps 611 mmHg 58%
    09:00 +21°C° 0 mm 2 mps 612 mmHg 48%
    10:00 +24°C° 0 mm 2 mps 613 mmHg 39%
    11:00 +26°C° 0 mm 2 mps 613 mmHg 36%
    12:00 +27°C° 0 mm 3 mps 613 mmHg 33%
    13:00 +28°C° 0 mm 3 mps 612 mmHg 29%
    14:00 +27°C° 0 mm 3 mps 611 mmHg 34%
    15:00 +26°C° 0 mm 4 mps 610 mmHg 39%
    16:00 +23°C° 0 mm 4 mps 610 mmHg 43%
    17:00 +22°C° 0 mm 3 mps 610 mmHg 50%
    18:00 +20°C° 0 mm 3 mps 610 mmHg 57%
    19:00 +19°C° 0 mm 3 mps 610 mmHg 64%
    20:00 +17°C° 0 mm 2 mps 610 mmHg 69%
    21:00 +16°C° 0 mm 2 mps 610 mmHg 75%
    22:00 +15°C° 0 mm 1 mps 609 mmHg 80%
    23:00 +15°C° 0 mm 1 mps 609 mmHg 83%

    28 November, Tuesday

    Time Temperature Precipitation Wind Pressure Humidity
    00:00 +14°C° 0 mm 1 mps 608 mmHg 86%
    01:00 +14°C° 0 mm 1 mps 608 mmHg 89%
    02:00 +13°C° 0 mm 1 mps 608 mmHg 89%
    03:00 +13°C° 0 mm 1 mps 607 mmHg 90%
    04:00 +13°C° 0 mm 1 mps 607 mmHg 91%
    05:00 +14°C° 0 mm 1 mps 608 mmHg 83%
    06:00 +16°C° 0 mm 1 mps 609 mmHg 76%
    07:00 +16°C° 0 mm 0 mps 610 mmHg 68%
    08:00 +21°C° 0 mm 1 mps 611 mmHg 57%
    09:00 +24°C° 0 mm 1 mps 612 mmHg 46%
    10:00 +26°C° 0 mm 1 mps 613 mmHg 35%
    11:00 +28°C° 0 mm 2 mps 613 mmHg 32%
    12:00 +29°C° 0 mm 2 mps 612 mmHg 28%
    13:00 +30°C° 0 mm 2 mps 612 mmHg 25%
    14:00 +29°C° 0 mm 3 mps 611 mmHg 29%
    15:00 +28°C° 0 mm 4 mps 610 mmHg 32%
    16:00 +26°C° 0 mm 4 mps 610 mmHg 36%
    17:00 +23°C° 0 mm 4 mps 609 mmHg 42%
    18:00 +21°C° 0 mm 3 mps 609 mmHg 49%
    19:00 +19°C° 0 mm 3 mps 609 mmHg 55%
    20:00 +18°C° 0 mm 2 mps 609 mmHg 61%
    21:00 +17°C° 0 mm 2 mps 609 mmHg 66%
    22:00 +16°C° 0 mm 1 mps 609 mmHg 72%
    23:00 +15°C° 0 mm 1 mps 609 mmHg 74%
    Show more